Weather History for Windom, MN

Change the Weather History Date:

Friday, July 19, 2013

  Actual Average Record
Temperature  
Mean Temperature 74 °F -  
Max Temperature 82 °F 85 °F 98 °F (1957)
Min Temperature 64 °F 61 °F 35 °F (2001)
Cooling Degree Days 9    
Growing Degree Days 24 (Base 50)    
Moisture  
Dew Point 62 °F    
Average Humidity 59    
Maximum Humidity 83    
Minimum Humidity 37    
Precipitation  
Precipitation 0.00 in - - ()
Sea Level Pressure  
Sea Level Pressure 29.91 in    
Wind  
Wind Speed 11 mph (WNW)    
Max Wind Speed 17 mph    
Max Gust Speed 25 mph    
Visibility 10 miles    
Events      
Averages and records for this station are not official NWS values.
T = Trace of Precipitation, MM = Missing Value Source: NWS Daily Summary

Daily Weather History Graph

Daily Weather History Graph

Search for Another Location

Airport:

Trip Planner

Search our weather history database for the weather conditions in past years. The results will help you decide how hot, cold, wet, or windy it might be!

Date:

Astronomy

Jul. 19, 2013 Rise Set
Actual Time 5:55 AM CDT 8:57 PM CDT
Civil Twilight 5:21 AM CDT 9:31 PM CDT
Nautical Twilight 4:37 AM CDT 10:15 PM CDT
Astronomical Twilight 3:44 AM CDT 11:07 PM CDT
Moon 6:00 PM CDT (7/19) 2:38 AM CDT (7/19)
Length of Visible Light 16h 10m
Length of Day
15h 01m
Waxing Gibbous, 87% of the Moon is Illuminated
Jul 19
Waxing Gibbous
Jul 22
Full
Jul 29
Last Quarter
Aug 6
New
Aug 14
First Quarter

Hourly Weather History & Observations

Time (CDT) Temp. Heat Index Dew Point Humidity Pressure Visibility Wind Dir Wind Speed Gust Speed Precip Events Conditions
12:13 AM 82.4 °F 84.6 °F 66.2 °F 58% 29.85 in 10.0 mi SSW 16.1 mph 24.2 mph N/A   Clear
12:33 AM 82.4 °F 84.6 °F 66.2 °F 58% 29.85 in 10.0 mi SSW 16.1 mph 21.9 mph N/A   Clear
12:52 AM 82.4 °F 84.6 °F 66.2 °F 58% 29.85 in 10.0 mi SSW 16.1 mph - N/A   Clear
1:13 AM 82.4 °F 84.6 °F 66.2 °F 58% 29.85 in 10.0 mi SSW 16.1 mph - N/A   Scattered Clouds
1:33 AM 82.4 °F 84.6 °F 66.2 °F 58% 29.84 in 10.0 mi SSW 17.3 mph 20.7 mph N/A   Mostly Cloudy
1:52 AM 82.4 °F 84.6 °F 66.2 °F 58% 29.84 in 10.0 mi SSW 13.8 mph 23.0 mph N/A   Mostly Cloudy
2:13 AM 82.4 °F 84.6 °F 66.2 °F 58% 29.84 in 10.0 mi SW 15.0 mph 25.3 mph N/A   Scattered Clouds
2:33 AM 82.4 °F 84.6 °F 66.2 °F 58% 29.83 in 10.0 mi SW 16.1 mph 25.3 mph N/A   Clear
2:52 AM 82.4 °F 84.6 °F 66.2 °F 58% 29.82 in 10.0 mi SW 13.8 mph 23.0 mph N/A   Clear
3:13 AM 80.6 °F 82.7 °F 66.2 °F 61% 29.82 in 10.0 mi WSW 13.8 mph - N/A   Scattered Clouds
3:33 AM 78.8 °F - 66.2 °F 65% 29.84 in 10.0 mi West 10.4 mph - N/A   Clear
3:52 AM 78.8 °F - 66.2 °F 65% 29.84 in 10.0 mi West 9.2 mph - N/A   Clear
4:13 AM 77.0 °F - 66.2 °F 69% 29.84 in 10.0 mi West 6.9 mph - N/A   Clear
4:33 AM 77.0 °F - 66.2 °F 69% 29.84 in 10.0 mi West 6.9 mph - N/A   Clear
4:52 AM 75.2 °F - 66.2 °F 73% 29.84 in 10.0 mi Calm Calm - N/A   Clear
5:13 AM 73.4 °F - 66.2 °F 78% 29.85 in 10.0 mi Calm Calm - N/A   Clear
5:33 AM 73.4 °F - 66.2 °F 78% 29.86 in 10.0 mi Calm Calm - N/A   Clear
5:52 AM 71.6 °F - 66.2 °F 83% 29.87 in 10.0 mi Calm Calm - N/A   Clear
6:13 AM 71.6 °F - 66.2 °F 83% 29.87 in 10.0 mi Calm Calm - N/A   Mostly Cloudy
6:33 AM 71.6 °F - 66.2 °F 83% 29.88 in 10.0 mi Calm Calm - N/A   Mostly Cloudy
6:52 AM 73.4 °F - 68.0 °F 83% 29.88 in 10.0 mi Calm Calm - N/A   Mostly Cloudy
7:12 AM 75.2 °F - 68.0 °F 78% 29.88 in 10.0 mi Calm Calm - N/A   Mostly Cloudy
7:33 AM 77.0 °F - 66.2 °F 69% 29.89 in 10.0 mi NW 5.8 mph - N/A   Scattered Clouds
7:52 AM 77.0 °F - 64.4 °F 65% 29.89 in 10.0 mi NW 8.1 mph - N/A   Clear
8:12 AM 78.8 °F - 64.4 °F 61% 29.90 in 10.0 mi NW 12.7 mph 18.4 mph N/A   Clear
8:33 AM 78.8 °F - 62.6 °F 57% 29.90 in 10.0 mi NNW 16.1 mph 19.6 mph N/A   Clear
8:52 AM 78.8 °F - 60.8 °F 54% 29.90 in 10.0 mi NW 17.3 mph 21.9 mph N/A   Clear
9:12 AM 78.8 °F - 60.8 °F 54% 29.91 in 10.0 mi NW 16.1 mph 20.7 mph N/A   Clear
9:33 AM 77.0 °F - 60.8 °F 57% 29.92 in 10.0 mi NW 13.8 mph 20.7 mph N/A   Clear
9:52 AM 78.8 °F - 60.8 °F 54% 29.93 in 10.0 mi NW 15.0 mph - N/A   Clear
10:12 AM 78.8 °F - 62.6 °F 57% 29.93 in 10.0 mi NNW 15.0 mph 23.0 mph N/A   Clear
10:33 AM 78.8 °F - 62.6 °F 57% 29.94 in 10.0 mi NW 15.0 mph 19.6 mph N/A   Clear
10:52 AM 78.8 °F - 60.8 °F 54% 29.93 in 10.0 mi NW 15.0 mph - N/A   Clear
11:12 AM 78.8 °F - 60.8 °F 54% 29.94 in 10.0 mi NW 13.8 mph - N/A   Clear
11:33 AM 78.8 °F - 62.6 °F 57% 29.94 in 10.0 mi NW 13.8 mph 17.3 mph N/A   Clear
11:52 AM 78.8 °F - 60.8 °F 54% 29.95 in 10.0 mi NW 13.8 mph 18.4 mph N/A   Clear
12:12 PM 78.8 °F - 60.8 °F 54% 29.95 in 10.0 mi WNW 9.2 mph 18.4 mph N/A   Clear
12:33 PM 80.6 °F 81.5 °F 60.8 °F 51% 29.95 in 10.0 mi WNW 13.8 mph - N/A   Clear
12:52 PM 80.6 °F 81.5 °F 60.8 °F 51% 29.96 in 10.0 mi NW 12.7 mph 18.4 mph N/A   Clear
1:12 PM 80.6 °F 81.5 °F 60.8 °F 51% 29.96 in 10.0 mi WNW 12.7 mph 18.4 mph N/A   Clear
1:33 PM 80.6 °F 81.1 °F 59.0 °F 48% 29.95 in 10.0 mi NW 11.5 mph 18.4 mph N/A   Clear
1:52 PM 80.6 °F 80.8 °F 57.2 °F 45% 29.95 in 10.0 mi NNW 11.5 mph - N/A   Clear
2:12 PM 82.4 °F 81.7 °F 55.4 °F 39% 29.95 in 10.0 mi NW 13.8 mph 18.4 mph N/A   Clear
2:33 PM 82.4 °F 81.4 °F 53.6 °F 37% 29.96 in 10.0 mi NW 11.5 mph 17.3 mph N/A   Clear
2:52 PM 82.4 °F 81.4 °F 53.6 °F 37% 29.95 in 10.0 mi NW 16.1 mph 20.7 mph N/A   Clear
3:12 PM 82.4 °F 81.4 °F 53.6 °F 37% 29.95 in 10.0 mi NNW 17.3 mph - N/A   Clear
3:32 PM 82.4 °F 81.4 °F 53.6 °F 37% 29.95 in 10.0 mi NW 15.0 mph 18.4 mph N/A   Clear
3:52 PM 82.4 °F 81.7 °F 55.4 °F 39% 29.95 in 10.0 mi WNW 11.5 mph 18.4 mph N/A   Clear
4:13 PM 82.4 °F 82.0 °F 57.2 °F 42% 29.94 in 10.0 mi NW 11.5 mph 19.6 mph N/A   Clear
4:32 PM 82.4 °F 81.7 °F 55.4 °F 39% 29.94 in 10.0 mi NW 11.5 mph - N/A   Clear
4:52 PM 82.4 °F 81.7 °F 55.4 °F 39% 29.94 in 10.0 mi NW 11.5 mph 19.6 mph N/A   Clear
5:13 PM 82.4 °F 82.0 °F 57.2 °F 42% 29.94 in 10.0 mi NW 11.5 mph - N/A   Clear
5:32 PM 82.4 °F 82.0 °F 57.2 °F 42% 29.94 in 10.0 mi NW 12.7 mph 18.4 mph N/A   Clear
5:52 PM 80.6 °F 80.5 °F 55.4 °F 42% 29.93 in 10.0 mi NW 13.8 mph - N/A   Clear
6:13 PM 80.6 °F 80.5 °F 55.4 °F 42% 29.93 in 10.0 mi NW 12.7 mph - N/A   Clear
6:32 PM 80.6 °F 80.8 °F 57.2 °F 45% 29.93 in 10.0 mi NW 9.2 mph - N/A   Clear
6:52 PM 78.8 °F - 57.2 °F 47% 29.92 in 10.0 mi NW 10.4 mph - N/A   Clear
7:13 PM 77.0 °F - 59.0 °F 54% 29.92 in 10.0 mi Calm Calm - N/A   Clear
7:32 PM 78.8 °F - 60.8 °F 54% 29.92 in 10.0 mi Calm Calm - N/A   Clear
7:52 PM 78.8 °F - 60.8 °F 54% 29.92 in 10.0 mi Calm Calm - N/A   Clear
8:13 PM 77.0 °F - 60.8 °F 57% 29.92 in 10.0 mi Calm Calm - N/A   Clear
8:32 PM 75.2 °F - 60.8 °F 61% 29.93 in 10.0 mi Calm Calm - N/A   Clear
8:52 PM 73.4 °F - 60.8 °F 65% 29.93 in 10.0 mi Calm Calm - N/A   Clear
9:13 PM 73.4 °F - 60.8 °F 65% 29.93 in 10.0 mi Calm Calm - N/A   Clear
9:32 PM 71.6 °F - 60.8 °F 69% 29.94 in 10.0 mi Calm Calm - N/A   Clear
9:52 PM 69.8 °F - 60.8 °F 73% 29.94 in 10.0 mi Calm Calm - N/A   Clear
10:13 PM 68.0 °F - 60.8 °F 78% 29.95 in 7.0 mi Calm Calm - N/A   Clear
10:32 PM 66.2 °F - 60.8 °F 83% 29.95 in 10.0 mi Calm Calm - N/A   Clear
10:52 PM 66.2 °F - 60.8 °F 83% 29.95 in 10.0 mi Calm Calm - N/A   Clear
11:13 PM 66.2 °F - 60.8 °F 83% 29.95 in 10.0 mi Calm Calm - N/A   Clear
11:32 PM 66.2 °F - 59.0 °F 78% 29.96 in 10.0 mi Calm Calm - N/A   Clear
11:52 PM 64.4 °F - 59.0 °F 83% 29.96 in 10.0 mi Calm Calm - N/A   Clear